Location: Donzy-le-Pr�
(47.3659°N, 3.1107°E)
Time: 11:04:06
(UTC+00:00)

HJ-1C - Pass Details

Date: 03 March 2021
Orbit: 428 x 439 km, 97.1° (Epoch: 23 April)

Event Time Altitude Azimuth Distance (km) Brightness Sun altitude
Rises 18:28:57 0° 159° (SSE) 2,417 6.9 -9.8°
Reaches altitude 10° 18:30:58 10° 157° (SSE) 1,550 5.9 -10.1°
Maximum altitude 18:34:15 64° 76° (ENE) 491 3.3 -10.7°
Drops below altitude 10° 18:37:34 10° 354° (N) 1,557 6.2 -11.3°
Sets 18:39:36 0° 351° (N) 2,429 7.3 -11.6°
